Location: Rancho Del Sol Observatory
(38.7214°N, 120.6350°W)
Time: 22:01:44
(UTC-08:00)

A-11 Canister half - Pass Details

Date: 01 February 2020
Orbit: 1517 x 1683 km, 47.2° (Epoch: 19 February)

Event Time Altitude Azimuth Distance (km) Brightness Sun altitude
Rises 19:27:51 0° 199° (SSW) 4,838 11.9 -24.4°
Reaches altitude 10° 19:31:25 10° 190° (S) 3,831 11.2 -25.1°
Enters shadow 19:39:32 33° 133° (SE) 2,428 9.6 -26.6°
Maximum altitude 19:39:42 33° 131° (SE) 2,426 - -26.7°
Drops below altitude 10° 19:47:45 10° 72° (ENE) 3,732 - -28.2°
Sets 19:51:09 0° 63° (ENE) 4,699 - -28.9°
